Location: Eaton Estates
(41.3089°N, 82.0057°W)
Time: 20:33:47
(UTC+00:00)

Cosmos 2123 Rocket - Pass Details

Date: 18 October 2021
Orbit: 961 x 992 km, 82.9° (Epoch: 03 December)

Event Time Altitude Azimuth Distance (km) Brightness Sun altitude
Rises 01:24:45 0° 342° (NNW) 3,716 7.5 -30.8°
Reaches altitude 10° 01:27:34 10° 332° (NNW) 2,762 6.8 -31.3°
Maximum altitude 01:32:56 30° 274° (W) 1,686 5.7 -32.3°
Drops below altitude 10° 01:38:17 10° 215° (SW) 2,736 6.5 -33.3°
Sets 01:41:04 0° 205° (SSW) 3,676 7.1 -33.8°
